Vorticity
20 18 16 14 12 11 11 10 10 10 10 10 10 10 9 9 9 9 9 9 9 8 7 7 8 8 9 8 8 7 8 7 7 7 6 6 5 5 5 6 6 7 7 8 8 7 7 7 7 7 6 6 6 6 5 4 4 4 4 5 6 6 6 6 6 7 7 8 8 9 9 9 8 8 8 8 7 7 7 6 6 6 6 6 6 6
22 22 22 19 17 15 14 13 13 12 11 11 11 10 10 10 10 10 10 10 9 8 7 7 7 6 7 7 7 7 7 7 7 8 8 8 7 7 7 7 7 7 7 8 8 8 8 8 8 8 8 8 8 8 8 8 8 8 8 9 9 10 10 10 10 10 11 11 11 11 11 10 10 10 9 9 8 8 8 7 7 7 7 6 6 6
21 22 23 22 20 19 17 16 15 15 13 12 11 11 11 11 10 10 10 10 9 9 8 7 7 6 6 6 6 6 6 6 7 8 8 8 8 8 8 8 8 8 7 7 8 8 8 8 9 9 9 9 9 9 10 10 10 10 11 11 12 12 12 12 12 12 12 12 12 12 12 11 11 11 10 10 10 9 9 9 8 8 8 8 7 7
19 20 22 22 23 22 19 17 17 16 16 14 13 12 12 12 11 10 10 10 10 10 9 9 8 7 6 6 5 5 5 6 6 6 6 7 7 8 8 8 8 8 7 7 8 8 8 8 8 9 9 9 9 10 10 10 10 11 11 11 12 12 12 12 12 12 12 12 12 12 12 12 12 12 11 11 11 10 10 10 10 10 9 9 8 8
17 18 19 20 22 23 21 20 19 18 17 16 15 14 14 13 12 12 12 12 11 11 11 10 9 8 7 6 5 5 4 4 4 5 5 5 6 6 7 7 7 7 7 8 8 8 8 8 9 9 9 9 9 10 10 10 10 10 10 10 11 11 11 11 11 11 11 11 11 11 11 11 12 12 12 11 11 11 11 10 10 10 10 10 10 9
17 17 17 17 18 20 21 21 21 20 19 19 18 16 16 15 14 13 13 13 12 12 12 11 10 9 8 7 6 5 4 4 4 4 4 5 5 6 6 7 7 7 8 8 8 9 9 9 9 9 9 9 9 10 10 10 10 10 10 10 10 10 10 10 10 10 10 10 10 10 10 10 10 11 11 11 11 11 11 11 10 10 10 10 10 10
17 16 14 14 16 17 18 19 20 20 20 20 20 19 18 17 16 15 14 14 13 13 12 12 11 10 9 8 7 6 6 5 5 5 5 5 6 6 7 7 8 8 8 9 9 10 10 10 10 10 9 9 9 9 9 9 9 9 10 10 10 10 10 10 10 10 10 10 9 9 9 9 10 10 10 10 10 10 10 10 10 10 10 10 10 9
15 15 13 13 14 15 15 16 17 18 19 20 20 20 19 19 18 17 16 16 15 14 13 13 12 11 10 9 8 8 7 7 7 7 7 7 7 7 8 8 9 9 10 10 10 10 10 10 10 9 9 9 9 9 9 9 9 9 10 10 10 10 10 9 9 9 9 9 8 8 8 8 8 9 9 9 9 9 9 9 9 9 9 9 9 9
12 12 13 13 12 12 12 13 13 13 15 16 17 18 19 20 19 19 18 17 16 14 14 13 13 12 11 10 10 10 9 9 9 9 9 9 9 9 9 10 10 10 11 11 11 10 10 10 9 9 8 8 8 8 9 9 9 9 10 10 10 9 9 9 9 9 8 8 8 8 8 8 8 8 8 8 8 8 8 8 8 8 8 8 8 8
12 12 13 14 13 11 9 10 11 12 12 13 13 15 16 18 19 19 19 18 17 16 15 14 13 13 13 12 12 11 11 12 11 11 10 10 11 11 11 11 11 12 12 11 11 10 10 9 8 8 8 8 8 8 8 9 9 9 9 9 9 9 9 9 9 8 8 8 8 8 8 8 8 8 8 8 8 8 8 8 8 7 7 7 8 8
14 14 13 13 14 14 13 9 8 9 14 13 13 13 14 14 15 16 18 18 18 18 17 16 15 14 14 14 14 14 13 14 14 13 13 13 13 13 13 13 12 12 12 11 10 10 9 8 8 7 7 7 8 8 8 8 9 9 9 9 9 9 9 9 9 9 9 9 9 9 8 8 8 8 8 8 7 7 7 7 7 7 7 7 8 8
14 14 14 13 12 13 14 12 8 5 8 11 12 12 12 13 13 14 15 15 15 15 17 17 16 16 15 15 15 15 15 15 14 14 14 14 14 14 14 13 13 12 12 10 9 8 8 7 7 7 7 7 8 8 8 8 8 8 8 9 9 9 9 9 9 9 9 10 10 10 9 9 8 8 8 8 8 7 7 7 7 8 8 8 8 8
17 16 15 14 13 12 12 13 13 12 10 10 10 9 8 9 11 13 13 14 14 14 14 15 15 15 15 16 15 14 14 15 15 14 14 14 13 13 12 12 12 11 10 9 8 7 6 6 7 7 7 7 8 8 8 8 8 8 9 9 9 9 9 9 10 10 10 10 10 10 10 9 9 9 9 9 8 8 8 8 8 8 8 8 8 8
19 17 16 16 16 17 19 19 19 18 17 15 13 11 10 10 10 11 12 13 13 14 14 15 14 14 14 15 15 14 14 14 14 14 14 13 12 11 10 10 10 9 8 7 7 6 6 6 7 7 7 8 8 9 8 9 9 9 9 10 10 10 10 10 10 10 10 10 10 10 10 10 10 10 10 10 10 10 9 9 9 9 9 9 8 8
14 13 14 16 18 20 20 18 16 16 17 18 18 18 17 15 12 11 10 10 11 12 14 15 16 15 14 14 14 14 14 13 13 12 12 11 10 9 8 9 9 8 7 7 7 7 7 7 7 8 9 10 10 10 10 10 10 10 10 10 10 10 10 10 10 10 10 10 10 10 10 10 10 10 11 11 10 10 10 10 10 10 10 9 9 9
10 9 9 12 16 18 17 13 10 9 9 11 13 14 15 14 13 12 10 10 10 11 13 15 16 16 16 15 13 12 11 10 10 9 9 9 8 7 7 7 8 8 7 8 8 9 10 9 10 10 11 12 12 12 12 11 11 11 11 11 10 10 10 10 10 9 10 10 10 10 10 10 11 11 11 11 11 11 11 10 10 10 10 10 10 9
9 8 7 10 13 14 14 11 8 5 3 4 6 7 8 9 9 10 10 10 10 10 11 12 12 12 15 17 15 12 8 8 8 7 7 8 7 7 6 7 7 8 8 9 9 10 10 11 11 12 12 12 13 12 12 11 11 10 10 10 10 10 10 10 9 9 9 10 10 10 11 11 11 11 11 11 11 11 11 11 11 10 10 10 10 10
7 6 6 10 12 13 13 11 7 3 1 1 2 3 5 6 6 6 6 6 6 6 6 6 6 7 9 13 15 14 10 9 9 9 9 10 10 10 9 9 9 8 8 10 10 10 10 11 11 12 12 12 12 11 11 10 10 10 10 10 10 10 10 10 10 10 10 10 11 11 12 12 12 11 11 11 11 11 11 11 10 10 10 10 10 10
7 5 4 7 10 13 15 13 9 5 1 -1 -1 -0 0 1 2 3 3 3 4 4 5 4 4 5 6 9 12 14 13 14 14 15 16 17 17 16 14 13 11 11 10 11 12 12 12 12 13 13 12 12 11 10 9 9 8 9 9 10 11 11 11 10 10 10 10 11 12 12 12 12 12 11 11 11 11 11 11 11 11 10 10 10 11 11
9 6 3 3 6 9 13 14 12 9 5 2 0 -1 -2 -1 -1 -0 1 2 3 5 7 8 9 10 10 12 14 15 16 18 20 21 21 22 22 20 17 15 14 14 14 15 16 16 15 16 16 16 15 14 12 10 9 9 8 9 10 11 12 12 12 11 11 11 11 12 12 13 13 12 11 11 10 11 11 11 11 11 11 11 11 11 11 11
14 10 6 4 4 5 8 11 12 11 10 7 4 2 1 1 1 1 3 5 7 9 11 12 14 16 16 17 18 19 20 22 23 23 22 22 21 19 17 17 18 20 21 22 22 21 20 20 20 19 18 17 15 14 12 12 11 12 12 13 13 13 13 12 11 10 11 11 12 12 12 11 11 10 10 10 11 11 12 11 11 11 12 12 11 11
19 16 12 9 7 6 6 8 10 10 10 9 8 6 6 5 6 7 9 11 14 16 18 20 21 21 20 21 22 22 23 23 22 20 18 17 17 17 17 21 24 27 28 27 26 25 24 23 22 21 20 20 19 18 17 17 17 17 16 16 15 14 13 11 10 9 10 10 11 11 11 10 10 9 9 10 11 11 12 12 12 12 12 12 11 11
18 21 19 16 13 11 10 10 10 10 10 9 9 9 9 10 12 14 16 18 21 23 23 24 24 23 22 23 23 23 22 20 18 15 13 11 12 14 17 22 26 28 29 28 26 25 23 22 21 20 20 20 20 21 21 21 21 21 20 18 16 14 12 10 8 8 8 9 10 11 11 10 9 8 8 9 10 11 12 12 12 12 12 11 11 10
14 20 22 20 18 16 15 14 13 12 11 10 10 9 10 11 13 16 19 21 23 23 23 23 24 24 24 22 21 19 17 14 12 11 9 9 10 13 14 16 17 19 20 21 20 20 19 18 17 17 17 18 19 20 20 21 21 20 20 18 15 12 10 8 7 7 7 9 10 11 12 10 9 8 7 8 10 11 12 12 12 12 11 10 10 10
12 17 20 20 19 18 17 17 16 16 15 13 12 11 11 13 15 18 20 21 22 22 21 20 20 19 17 16 14 13 11 9 8 7 8 9 11 12 11 10 8 7 8 9 10 11 13 13 13 13 13 14 15 16 17 17 17 17 16 14 12 10 8 7 6 7 8 10 11 13 14 12 10 8 7 8 9 10 11 12 12 11 11 10 10 9
11 15 19 19 18 17 16 17 17 17 17 16 15 14 14 15 17 18 19 20 19 18 17 16 14 12 10 9 8 8 7 7 7 8 8 10 10 10 9 6 3 -1 -3 -3 0 4 8 10 10 10 10 10 11 12 12 13 13 12 12 11 10 8 7 7 7 8 10 12 14 16 18 16 13 10 7 8 9 10 11 11 12 11 11 10 10 10
11 15 18 17 16 15 15 16 17 17 17 16 16 16 15 16 16 16 16 15 14 13 12 11 9 8 7 6 6 7 7 7 8 8 9 10 10 9 8 5 2 -1 -5 -5 -2 3 7 9 9 9 8 9 9 9 10 10 10 9 9 8 8 8 8 9 10 11 13 16 19 21 22 20 16 12 8 8 8 10 11 11 12 12 12 12 11 11
11 15 17 14 13 13 13 15 16 16 16 15 14 14 13 13 12 11 11 10 10 10 9 8 7 6 6 6 6 7 7 8 8 7 7 8 8 7 6 5 4 3 1 2 4 7 9 9 9 8 8 8 8 9 9 9 8 8 7 7 7 8 9 11 12 14 17 20 23 26 26 23 18 13 9 8 8 9 10 11 12 13 13 13 13 12
14 16 16 12 10 9 10 12 13 13 13 12 11 10 10 9 9 9 9 9 9 8 8 7 7 7 7 7 8 8 8 7 6 6 5 6 6 5 5 6 6 6 6 8 9 10 10 10 9 9 9 9 9 9 10 10 9 8 8 7 8 8 10 12 14 16 18 22 26 27 27 22 17 12 9 8 8 9 10 11 12 13 14 14 14 14
15 16 14 10 7 6 7 8 9 10 10 9 8 7 7 8 8 9 10 9 9 9 9 9 8 8 8 8 9 8 7 6 5 4 4 4 4 5 5 7 8 8 9 10 11 12 12 11 10 10 10 10 10 10 10 11 11 10 9 9 9 10 11 12 14 16 18 22 24 25 24 19 15 11 8 8 8 8 9 10 12 13 14 15 15 15
14 14 11 7 5 4 6 7 8 8 8 7 6 6 7 8 9 10 10 10 10 10 9 9 8 8 8 8 8 7 6 5 4 3 4 4 5 5 6 8 10 11 11 12 12 12 12 12 11 11 11 11 11 11 11 12 12 13 12 12 12 12 13 14 14 16 17 19 21 21 19 15 12 10 8 7 7 7 8 10 12 14 15 16 16 16
13 12 9 6 5 5 7 8 9 9 8 8 7 7 8 9 10 11 11 10 10 9 8 8 7 7 6 6 7 6 6 5 4 4 5 6 6 7 8 10 12 12 13 13 12 11 11 11 11 12 11 11 11 10 10 12 14 16 16 15 14 14 14 15 15 15 16 17 17 16 14 12 10 8 7 6 6 7 8 11 13 16 17 17 17 17
12 10 7 6 6 7 9 10 10 10 10 9 9 9 10 10 11 11 10 9 9 8 7 7 6 6 6 5 6 6 6 5 5 5 6 7 8 9 10 12 13 13 13 13 12 11 10 10 11 12 12 11 10 10 10 12 15 17 18 17 16 15 14 14 14 14 14 14 13 12 10 9 7 6 5 5 6 8 11 15 18 20 20 20 20 20
10 9 7 6 7 9 11 12 12 12 11 11 11 11 11 11 10 10 8 7 7 6 6 6 6 6 6 6 6 6 6 6 6 6 8 8 9 9 11 12 12 12 13 13 12 11 10 10 10 11 12 12 11 10 10 12 14 16 16 16 15 14 13 12 13 13 13 12 11 9 8 7 6 5 4 6 8 12 17 20 22 23 23 22 22 21
9 8 7 8 9 10 12 13 13 13 12 12 11 11 11 10 10 9 8 7 6 6 6 6 6 6 6 6 6 7 7 7 6 7 8 9 9 10 10 11 11 12 12 11 10 10 9 9 9 10 11 12 12 12 12 12 13 14 14 13 12 12 11 11 12 12 12 11 10 8 7 6 5 5 6 9 13 18 22 24 25 24 23 22 21 20
8 8 8 9 10 11 12 13 13 13 13 12 11 11 10 10 9 8 8 8 7 7 6 6 6 6 6 7 7 7 7 6 6 7 7 9 9 9 9 10 10 11 10 10 10 9 8 9 9 10 10 11 13 13 14 13 13 13 12 12 11 11 11 11 11 12 12 11 10 9 8 7 6 7 10 14 19 22 25 25 24 22 21 20 19 18
9 9 9 10 11 12 12 13 13 13 13 12 12 11 10 9 9 8 8 8 8 8 7 7 7 7 7 7 7 7 7 6 6 7 8 9 10 10 9 9 9 10 10 10 9 9 9 9 9 10 10 11 13 13 14 13 12 11 10 10 10 11 11 11 12 12 13 12 11 10 9 8 10 12 16 19 22 23 24 22 20 18 17 17 16 16
10 10 10 10 11 12 12 13 13 13 13 12 11 10 9 8 8 7 7 7 7 8 8 8 8 7 7 7 7 7 8 8 8 9 10 10 10 10 10 9 10 10 10 10 10 9 9 9 9 10 11 12 13 13 12 10 9 8 7 7 8 10 11 13 13 14 14 14 13 11 11 12 14 17 20 22 22 21 20 17 16 15 15 14 14 15
12 11 11 11 11 12 12 13 13 13 12 11 10 9 8 7 6 6 6 6 6 7 7 8 8 7 7 7 8 9 10 11 12 12 12 12 12 11 11 10 10 10 11 10 9 9 9 9 10 10 10 12 12 12 10 8 6 5 4 4 5 6 9 13 14 15 16 16 15 14 14 16 18 19 21 20 18 17 14 13 13 13 13 13 14 14
13 12 12 11 11 12 12 12 12 12 11 10 8 7 7 6 6 6 6 6 6 6 6 6 6 7 7 9 10 12 13 14 15 15 14 14 13 13 12 12 11 11 11 11 10 10 9 10 10 10 10 11 10 10 9 7 5 3 3 2 3 5 10 13 15 17 18 17 17 17 17 18 19 18 18 17 15 14 13 13 12 12 13 13 14 15
13 13 12 11 11 11 10 10 10 10 9 8 8 7 7 7 7 7 7 7 7 7 7 7 7 8 9 11 13 14 15 16 16 16 16 15 14 14 13 12 12 12 12 12 12 11 10 10 10 10 10 11 11 11 11 9 7 6 6 6 7 9 12 14 16 17 18 18 18 18 18 18 17 17 16 15 15 14 14 13 13 12 13 13 14 15
14 13 12 11 10 10 10 9 9 8 8 8 8 8 8 8 8 8 8 8 8 8 8 9 9 10 11 12 14 15 16 16 16 16 16 15 15 14 14 14 13 13 13 13 13 13 12 12 11 10 10 10 11 12 12 12 12 11 11 11 12 12 12 12 14 17 18 18 18 18 17 16 16 16 16 16 16 15 14 13 13 12 12 13 14 15
13 12 11 10 10 10 9 9 8 8 8 8 8 8 9 9 9 9 9 9 9 9 9 10 10 11 11 11 12 13 14 14 14 14 14 14 14 14 15 15 15 15 15 16 16 16 15 14 13 12 11 11 12 13 14 15 15 15 15 14 14 13 13 14 16 17 17 18 18 17 16 16 17 17 18 17 17 16 15 14 13 13 12 13 13 14
12 12 11 10 10 9 9 8 8 8 7 7 8 8 9 10 10 10 10 10 10 10 10 10 10 11 12 11 11 12 12 13 13 13 13 13 13 14 15 16 17 18 18 19 19 18 17 16 14 13 12 13 14 15 16 17 17 17 15 14 13 13 13 17 19 19 18 18 17 17 17 17 18 18 18 18 17 16 15 14 13 13 13 12 13 13
11 11 10 10 9 9 8 8 8 8 7 7 8 9 10 10 11 11 11 11 10 10 10 10 11 11 12 12 12 12 12 12 13 13 13 13 13 14 14 16 18 20 21 22 22 21 19 17 15 14 13 14 16 17 17 17 16 15 13 12 11 12 14 16 18 19 19 19 18 17 17 18 18 18 17 17 16 16 15 14 14 13 13 13 12 12
11 10 10 10 9 8 8 8 8 8 8 8 9 10 10 11 11 12 12 11 11 11 11 11 12 13 13 13 13 13 13 13 13 13 13 13 13 14 15 17 19 20 22 22 22 21 20 18 16 15 15 16 17 18 18 17 15 13 12 12 12 14 15 17 18 19 19 18 17 17 17 17 16 16 16 16 15 15 15 14 14 14 13 13 13 13
10 10 10 9 9 8 8 8 8 8 8 9 10 10 11 11 12 12 12 12 12 12 12 13 14 15 15 15 15 15 15 15 14 14 14 14 14 14 15 17 19 20 21 21 21 20 19 18 17 17 17 18 18 18 17 16 14 13 12 13 15 16 18 18 19 18 17 16 15 15 16 14 14 13 14 14 14 14 14 14 14 14 14 14 14 13
11 10 10 10 10 10 10 9 9 9 10 10 11 11 12 12 12 12 12 12 12 12 12 13 15 16 17 17 17 17 17 16 16 15 15 14 14 15 16 16 18 18 19 19 19 19 18 18 17 17 18 18 18 18 17 15 14 14 14 16 17 17 18 18 17 16 14 13 12 12 13 12 12 12 12 12 12 12 13 13 14 14 14 14 14 14
13 12 12 12 12 11 11 11 11 11 11 11 12 12 12 12 12 12 12 12 12 12 12 13 14 15 17 18 18 18 17 17 16 16 15 15 15 15 16 16 16 16 16 17 17 18 18 18 18 18 18 18 17 17 16 16 16 16 17 17 17 17 16 16 14 13 12 10 10 10 9 9 9 10 10 10 10 11 11 12 12 13 13 13 14 14
13 14 14 14 14 14 13 13 12 12 12 12 12 12 12 12 12 12 11 11 11 11 11 12 13 14 15 16 17 17 17 17 16 16 16 15 15 15 15 15 15 15 14 15 16 16 17 18 19 19 18 18 17 16 17 17 17 18 18 17 15 14 13 13 12 10 9 8 8 7 7 7 7 7 7 8 8 9 9 9 10 10 11 11 12 12
13 14 15 16 16 16 15 14 14 13 12 12 12 12 12 12 12 12 11 11 11 11 11 11 11 12 13 14 15 16 16 16 16 15 15 15 14 14 14 14 14 13 13 14 14 15 16 17 18 18 19 18 17 17 17 17 17 17 16 13 12 11 10 10 9 8 7 6 6 6 5 6 6 6 6 6 7 7 7 7 7 8 8 8 9 10
Height
5570 5572 5574 5577 5579 5582 5583 5584 5587 5590 5593 5595 5598 5601 5603 5606 5609 5611 5613 5616 5618 5621 5623 5625 5628 5631 5633 5635 5637 5639 5641 5643 5644 5647 5649 5651 5653 5655 5657 5658 5660 5661 5663 5664 5666 5667 5668 5670 5671 5672 5674 5675 5677 5678 5680 5681 5683 5684 5685 5687 5689 5690 5692 5693 5694 5695 5696 5698 5699 5700 5702 5703 5704 5705 5707 5708 5709 5710 5712 5713 5714 5715 5716 5716 5717 5718
5564 5566 5569 5572 5574 5576 5577 5579 5583 5586 5588 5590 5593 5596 5598 5601 5603 5605 5608 5611 5613 5615 5617 5620 5623 5625 5628 5630 5632 5633 5635 5637 5639 5641 5643 5645 5647 5649 5651 5653 5654 5656 5658 5659 5660 5662 5663 5665 5666 5667 5668 5670 5671 5673 5675 5676 5678 5679 5681 5683 5684 5685 5686 5688 5689 5690 5691 5693 5694 5695 5697 5698 5700 5701 5703 5704 5705 5706 5708 5708 5710 5710 5711 5712 5713 5713
5558 5561 5564 5566 5568 5570 5572 5574 5578 5581 5583 5585 5588 5591 5593 5596 5598 5600 5603 5605 5607 5609 5612 5615 5617 5620 5622 5624 5626 5628 5630 5631 5633 5635 5637 5639 5642 5643 5645 5647 5649 5651 5652 5654 5655 5657 5658 5659 5661 5662 5663 5665 5666 5668 5669 5671 5673 5674 5676 5677 5678 5680 5681 5683 5684 5685 5686 5688 5689 5691 5692 5694 5695 5697 5698 5699 5700 5702 5703 5704 5705 5706 5707 5708 5708 5709
5553 5556 5558 5560 5562 5565 5567 5569 5573 5576 5578 5580 5583 5586 5588 5591 5593 5594 5597 5599 5602 5604 5607 5609 5612 5614 5617 5618 5621 5623 5624 5626 5628 5630 5632 5634 5636 5638 5640 5642 5643 5645 5647 5649 5650 5652 5653 5654 5656 5657 5658 5660 5661 5663 5664 5666 5668 5669 5671 5672 5673 5675 5676 5677 5678 5680 5681 5683 5684 5686 5688 5689 5691 5692 5693 5694 5696 5697 5698 5700 5701 5702 5702 5703 5704 5705
5548 5551 5552 5554 5557 5560 5562 5564 5567 5570 5572 5575 5578 5580 5583 5585 5587 5589 5592 5594 5597 5599 5601 5604 5606 5609 5611 5613 5615 5617 5619 5621 5623 5625 5627 5629 5631 5633 5634 5636 5638 5640 5642 5643 5645 5647 5648 5649 5651 5652 5653 5655 5656 5658 5659 5661 5663 5664 5666 5667 5668 5669 5671 5672 5673 5675 5676 5678 5680 5681 5683 5684 5686 5687 5688 5690 5691 5692 5694 5695 5696 5697 5698 5699 5700 5701
5542 5545 5547 5550 5553 5555 5556 5558 5562 5564 5567 5569 5572 5574 5577 5579 5582 5584 5587 5589 5592 5593 5596 5598 5601 5603 5605 5608 5609 5612 5613 5616 5618 5620 5622 5624 5626 5628 5629 5631 5633 5635 5636 5638 5640 5641 5643 5644 5646 5647 5648 5650 5651 5653 5655 5656 5658 5659 5660 5662 5663 5664 5665 5667 5668 5670 5671 5673 5675 5676 5678 5679 5681 5682 5683 5685 5686 5687 5689 5690 5691 5692 5693 5694 5695 5696
5537 5540 5543 5546 5548 5550 5551 5554 5557 5559 5561 5564 5566 5569 5571 5574 5576 5579 5582 5584 5586 5588 5591 5593 5596 5598 5600 5602 5604 5606 5608 5610 5612 5614 5617 5618 5620 5622 5624 5626 5628 5629 5631 5633 5634 5636 5638 5639 5641 5642 5643 5645 5647 5648 5649 5651 5652 5654 5655 5656 5658 5659 5660 5662 5663 5665 5666 5668 5670 5671 5673 5674 5676 5678 5679 5680 5681 5682 5684 5685 5686 5687 5688 5689 5690 5691
5532 5535 5538 5541 5543 5544 5547 5549 5552 5554 5556 5558 5561 5563 5566 5568 5571 5574 5576 5579 5581 5583 5586 5588 5590 5592 5594 5596 5598 5601 5603 5605 5607 5609 5611 5613 5615 5617 5619 5620 5622 5624 5626 5628 5629 5631 5632 5634 5635 5637 5638 5640 5641 5643 5644 5646 5647 5648 5650 5651 5653 5654 5655 5657 5658 5660 5661 5663 5665 5666 5668 5670 5671 5673 5674 5675 5676 5677 5679 5680 5681 5682 5683 5684 5685 5686
5527 5530 5532 5535 5537 5539 5542 5545 5547 5549 5551 5553 5556 5558 5561 5563 5566 5569 5572 5574 5577 5578 5581 5583 5585 5587 5588 5591 5593 5595 5598 5600 5602 5604 5606 5608 5610 5612 5613 5615 5617 5619 5620 5622 5624 5625 5627 5628 5630 5632 5633 5634 5636 5637 5639 5640 5642 5643 5645 5646 5647 5649 5650 5652 5653 5655 5656 5658 5660 5662 5663 5665 5667 5668 5669 5670 5671 5673 5674 5675 5676 5677 5678 5679 5681 5682
5522 5525 5527 5529 5532 5535 5538 5540 5543 5545 5547 5549 5551 5553 5555 5558 5561 5564 5567 5570 5572 5573 5576 5578 5580 5581 5583 5585 5588 5591 5593 5595 5597 5599 5601 5603 5605 5607 5608 5610 5612 5613 5615 5617 5618 5620 5622 5623 5625 5626 5628 5629 5631 5632 5633 5635 5637 5638 5639 5641 5642 5644 5645 5647 5648 5650 5652 5653 5655 5657 5658 5660 5662 5663 5664 5665 5666 5668 5669 5670 5671 5673 5674 5675 5676 5677
5518 5520 5522 5525 5528 5531 5533 5536 5538 5540 5543 5544 5546 5548 5550 5553 5556 5559 5562 5564 5566 5568 5571 5573 5574 5576 5578 5581 5584 5586 5588 5590 5592 5594 5596 5598 5600 5602 5603 5605 5606 5608 5610 5612 5613 5615 5616 5618 5619 5621 5623 5624 5625 5627 5628 5630 5631 5633 5634 5636 5637 5639 5640 5642 5643 5645 5647 5648 5650 5652 5653 5655 5657 5658 5659 5660 5662 5663 5664 5665 5666 5668 5669 5670 5672 5673
5513 5515 5518 5520 5523 5526 5528 5531 5533 5535 5538 5540 5542 5543 5546 5549 5552 5555 5557 5559 5562 5564 5566 5567 5569 5571 5573 5576 5579 5581 5583 5585 5587 5589 5591 5593 5595 5597 5598 5599 5601 5603 5604 5606 5608 5609 5611 5613 5614 5616 5618 5619 5620 5622 5623 5625 5626 5628 5629 5631 5632 5634 5635 5637 5638 5640 5642 5643 5645 5647 5649 5650 5652 5653 5654 5655 5657 5658 5659 5660 5662 5663 5664 5666 5667 5668
5508 5511 5513 5516 5518 5521 5523 5526 5528 5530 5533 5535 5537 5538 5541 5544 5548 5551 5554 5555 5558 5560 5561 5562 5564 5567 5569 5571 5573 5576 5578 5580 5582 5583 5585 5588 5590 5591 5593 5594 5596 5597 5599 5601 5603 5604 5606 5608 5609 5611 5612 5614 5615 5617 5618 5620 5621 5623 5624 5626 5627 5629 5630 5632 5633 5635 5637 5639 5640 5642 5643 5645 5647 5648 5649 5650 5652 5653 5654 5656 5657 5658 5660 5661 5662 5663
5504 5507 5509 5512 5514 5516 5519 5521 5523 5525 5527 5529 5532 5534 5537 5540 5544 5548 5550 5551 5553 5555 5556 5558 5560 5562 5564 5567 5569 5571 5573 5575 5577 5578 5580 5583 5584 5586 5588 5589 5591 5592 5593 5596 5598 5599 5601 5603 5604 5606 5607 5608 5610 5611 5613 5615 5616 5618 5619 5621 5622 5624 5626 5627 5629 5631 5632 5634 5635 5637 5638 5640 5642 5643 5644 5646 5647 5648 5650 5651 5653 5654 5655 5657 5658 5659
5500 5503 5505 5507 5509 5512 5515 5518 5520 5522 5523 5525 5528 5531 5533 5537 5540 5542 5544 5545 5547 5549 5552 5554 5556 5558 5560 5562 5564 5566 5568 5570 5572 5573 5575 5577 5578 5580 5583 5585 5586 5586 5588 5591 5593 5594 5595 5598 5599 5600 5601 5603 5605 5606 5608 5609 5611 5613 5614 5616 5618 5619 5621 5623 5624 5626 5627 5629 5630 5632 5633 5635 5637 5638 5640 5641 5642 5643 5645 5646 5648 5649 5651 5652 5653 5654
5496 5498 5501 5503 5505 5508 5511 5513 5516 5518 5520 5522 5525 5528 5530 5532 5534 5536 5538 5540 5542 5544 5547 5550 5552 5554 5555 5557 5558 5561 5563 5566 5567 5569 5571 5572 5574 5576 5579 5580 5581 5581 5583 5586 5588 5588 5590 5592 5594 5595 5596 5598 5600 5601 5603 5604 5606 5608 5609 5611 5613 5614 5616 5618 5619 5621 5622 5623 5625 5627 5628 5630 5632 5633 5635 5636 5638 5639 5640 5642 5643 5645 5646 5647 5648 5650
5492 5494 5497 5499 5501 5504 5507 5510 5512 5514 5516 5518 5521 5523 5525 5527 5528 5531 5534 5536 5538 5540 5543 5545 5547 5549 5550 5552 5554 5556 5559 5561 5562 5564 5566 5568 5570 5572 5574 5576 5576 5576 5578 5580 5582 5583 5585 5587 5588 5590 5591 5593 5594 5596 5598 5599 5601 5603 5604 5606 5608 5609 5611 5613 5614 5615 5617 5618 5620 5622 5623 5625 5627 5628 5630 5631 5633 5634 5636 5637 5638 5640 5641 5643 5644 5645
5488 5490 5492 5494 5497 5499 5502 5505 5508 5510 5512 5514 5517 5519 5521 5523 5525 5527 5530 5532 5533 5535 5538 5540 5542 5544 5546 5548 5549 5551 5554 5556 5558 5559 5561 5563 5565 5566 5568 5571 5572 5572 5573 5575 5577 5578 5579 5581 5583 5584 5586 5587 5589 5591 5593 5594 5596 5598 5599 5601 5603 5604 5606 5608 5609 5610 5612 5614 5615 5617 5619 5620 5622 5623 5625 5627 5628 5629 5631 5632 5634 5635 5636 5638 5639 5640
5484 5486 5488 5491 5493 5495 5498 5501 5503 5506 5508 5510 5513 5515 5517 5518 5521 5523 5525 5527 5529 5531 5533 5535 5537 5539 5542 5543 5545 5547 5549 5552 5553 5553 5555 5558 5560 5561 5563 5566 5568 5568 5568 5570 5571 5573 5574 5576 5578 5579 5581 5582 5584 5586 5587 5589 5591 5593 5594 5596 5598 5599 5601 5602 5604 5606 5607 5609 5610 5612 5613 5615 5617 5618 5620 5622 5623 5625 5626 5628 5629 5630 5632 5633 5634 5636
5479 5482 5485 5487 5489 5491 5494 5497 5499 5501 5504 5506 5509 5511 5513 5514 5516 5519 5521 5523 5524 5526 5528 5531 5533 5535 5537 5539 5541 5543 5545 5547 5548 5548 5550 5552 5554 5556 5558 5561 5563 5563 5563 5564 5566 5567 5569 5571 5573 5574 5576 5577 5579 5580 5582 5584 5586 5588 5589 5591 5592 5594 5596 5597 5599 5601 5603 5604 5606 5607 5609 5610 5612 5614 5615 5617 5618 5620 5621 5623 5624 5625 5627 5628 5629 5631
5476 5478 5480 5482 5484 5487 5489 5492 5494 5497 5500 5503 5505 5507 5509 5510 5512 5514 5516 5518 5520 5522 5524 5527 5528 5530 5532 5535 5538 5539 5541 5544 5545 5546 5546 5548 5550 5552 5554 5556 5558 5559 5558 5559 5560 5562 5565 5566 5568 5569 5571 5572 5574 5575 5577 5579 5581 5583 5584 5585 5587 5589 5591 5593 5594 5596 5598 5599 5601 5602 5604 5605 5607 5609 5610 5612 5613 5615 5616 5618 5619 5621 5622 5623 5624 5626
5473 5474 5476 5478 5481 5483 5485 5487 5490 5493 5496 5498 5501 5502 5503 5505 5508 5510 5512 5514 5516 5518 5520 5522 5524 5526 5529 5532 5533 5534 5536 5539 5542 5542 5542 5545 5548 5550 5551 5552 5553 5553 5553 5553 5554 5557 5560 5562 5563 5564 5566 5568 5569 5571 5573 5574 5576 5577 5578 5580 5582 5584 5586 5588 5590 5591 5593 5594 5596 5597 5599 5600 5602 5604 5605 5607 5608 5610 5611 5613 5614 5616 5617 5618 5620 5621
5468 5470 5472 5475 5478 5479 5481 5483 5486 5489 5491 5493 5495 5497 5499 5501 5503 5506 5508 5510 5512 5514 5515 5518 5520 5523 5525 5528 5529 5530 5531 5534 5536 5537 5539 5542 5543 5544 5547 5549 5550 5550 5549 5548 5549 5552 5555 5557 5558 5560 5562 5564 5565 5566 5568 5569 5571 5572 5573 5575 5578 5580 5582 5583 5585 5586 5588 5589 5591 5592 5594 5595 5597 5599 5600 5602 5603 5605 5607 5608 5609 5611 5612 5614 5615 5616
5464 5467 5469 5471 5473 5475 5477 5480 5482 5484 5487 5489 5490 5492 5494 5497 5499 5501 5503 5505 5508 5509 5511 5514 5516 5519 5521 5523 5524 5525 5527 5529 5532 5534 5536 5538 5538 5539 5541 5545 5547 5547 5545 5544 5545 5547 5550 5553 5554 5556 5558 5560 5561 5562 5563 5564 5566 5568 5569 5571 5573 5575 5577 5578 5580 5582 5583 5584 5586 5588 5589 5590 5592 5594 5596 5597 5599 5600 5602 5603 5605 5606 5608 5609 5610 5611
5461 5463 5465 5467 5469 5471 5473 5476 5478 5480 5482 5484 5486 5488 5490 5493 5495 5497 5499 5501 5503 5505 5507 5509 5512 5513 5515 5517 5519 5522 5523 5525 5528 5530 5532 5533 5534 5535 5537 5539 5542 5543 5543 5542 5543 5545 5547 5549 5550 5552 5554 5555 5556 5557 5558 5560 5562 5563 5565 5567 5569 5571 5573 5574 5576 5577 5578 5580 5581 5583 5584 5586 5587 5589 5591 5593 5594 5596 5597 5598 5600 5602 5603 5604 5605 5606
5458 5460 5462 5464 5466 5468 5469 5471 5473 5476 5478 5480 5482 5484 5487 5489 5491 5493 5495 5497 5499 5501 5503 5504 5506 5508 5510 5513 5515 5518 5519 5521 5523 5526 5528 5529 5530 5531 5533 5534 5537 5539 5539 5539 5540 5541 5543 5544 5545 5547 5549 5550 5551 5553 5554 5556 5557 5559 5561 5563 5565 5566 5568 5569 5571 5572 5573 5575 5576 5578 5579 5581 5583 5584 5586 5588 5589 5591 5593 5594 5596 5597 5598 5599 5600 5601
5455 5457 5458 5460 5462 5463 5465 5467 5469 5472 5474 5476 5478 5480 5483 5485 5488 5490 5491 5493 5495 5497 5499 5501 5502 5504 5506 5509 5512 5514 5516 5518 5519 5522 5523 5524 5526 5527 5528 5530 5533 5535 5536 5536 5535 5536 5538 5539 5541 5543 5545 5546 5547 5548 5550 5552 5553 5555 5557 5558 5560 5562 5563 5565 5566 5567 5568 5570 5571 5573 5574 5576 5578 5580 5582 5583 5585 5587 5588 5590 5591 5593 5594 5594 5595 5596
5452 5453 5455 5457 5458 5460 5462 5464 5466 5468 5470 5473 5475 5477 5479 5482 5484 5486 5487 5489 5491 5494 5495 5497 5498 5500 5503 5505 5507 5509 5512 5514 5516 5517 5518 5520 5522 5523 5524 5526 5528 5531 5533 5532 5531 5532 5535 5536 5538 5539 5541 5542 5543 5544 5546 5548 5549 5551 5553 5554 5556 5558 5559 5560 5561 5563 5564 5565 5567 5568 5570 5571 5573 5575 5577 5579 5581 5582 5584 5585 5587 5588 5589 5590 5591 5591
5448 5450 5452 5453 5455 5457 5458 5460 5463 5464 5467 5469 5472 5474 5476 5478 5481 5482 5483 5486 5488 5490 5491 5493 5494 5497 5499 5501 5503 5505 5508 5510 5511 5512 5514 5516 5518 5518 5519 5522 5524 5526 5528 5528 5528 5530 5532 5533 5534 5535 5537 5538 5539 5541 5542 5544 5545 5547 5548 5550 5552 5553 5554 5555 5557 5558 5559 5561 5562 5563 5565 5567 5569 5571 5573 5575 5576 5578 5579 5581 5582 5583 5584 5585 5586 5587
5445 5447 5448 5450 5452 5454 5455 5457 5459 5461 5463 5466 5468 5470 5472 5475 5477 5478 5480 5483 5485 5486 5487 5489 5491 5493 5495 5497 5499 5502 5503 5505 5506 5508 5510 5512 5513 5513 5515 5518 5520 5522 5523 5524 5525 5526 5528 5529 5530 5532 5533 5534 5536 5537 5538 5540 5541 5543 5544 5545 5547 5548 5550 5551 5553 5554 5555 5557 5558 5559 5561 5563 5564 5567 5568 5570 5572 5573 5575 5576 5578 5579 5579 5580 5581 5582
5441 5443 5445 5447 5449 5451 5452 5454 5455 5457 5459 5462 5464 5466 5468 5471 5473 5474 5477 5479 5481 5482 5483 5485 5488 5489 5491 5493 5496 5497 5498 5500 5502 5504 5507 5508 5508 5509 5512 5514 5515 5516 5518 5520 5521 5521 5523 5524 5526 5528 5529 5530 5531 5533 5534 5536 5537 5538 5539 5541 5543 5544 5545 5547 5548 5550 5551 5552 5553 5555 5557 5558 5560 5562 5564 5566 5568 5569 5570 5571 5573 5574 5575 5575 5576 5577
5438 5440 5442 5443 5445 5447 5449 5451 5452 5454 5456 5458 5460 5462 5464 5466 5468 5470 5472 5474 5476 5478 5480 5482 5483 5485 5488 5489 5491 5493 5494 5497 5499 5501 5503 5503 5503 5505 5508 5509 5510 5511 5513 5515 5516 5516 5517 5519 5521 5523 5525 5525 5526 5528 5529 5531 5533 5534 5535 5537 5538 5540 5541 5543 5544 5546 5547 5548 5549 5551 5553 5554 5556 5558 5560 5562 5563 5564 5565 5567 5568 5569 5570 5571 5572 5573
5434 5436 5438 5440 5442 5444 5446 5447 5449 5451 5452 5454 5456 5458 5460 5462 5464 5466 5468 5470 5472 5474 5476 5478 5479 5481 5483 5485 5487 5488 5491 5493 5495 5497 5498 5498 5499 5501 5503 5505 5506 5507 5509 5510 5511 5512 5513 5514 5516 5518 5520 5521 5522 5523 5524 5526 5528 5529 5531 5533 5534 5536 5537 5539 5540 5542 5543 5544 5545 5547 5548 5550 5552 5554 5556 5557 5558 5560 5561 5562 5563 5564 5565 5566 5567 5568
5431 5433 5435 5437 5439 5440 5442 5444 5445 5447 5449 5451 5453 5454 5456 5458 5460 5462 5464 5466 5468 5470 5472 5474 5476 5477 5479 5481 5482 5484 5486 5488 5490 5492 5493 5494 5495 5496 5498 5500 5501 5502 5504 5505 5506 5507 5508 5509 5511 5513 5515 5516 5517 5518 5520 5522 5523 5525 5527 5528 5530 5531 5533 5534 5536 5537 5538 5540 5541 5543 5544 5546 5548 5550 5551 5553 5554 5555 5556 5557 5558 5559 5560 5561 5563 5564
5427 5429 5431 5433 5435 5437 5438 5440 5442 5444 5445 5447 5448 5450 5452 5454 5456 5458 5460 5462 5464 5466 5468 5469 5472 5473 5475 5477 5478 5480 5482 5483 5485 5487 5489 5490 5490 5492 5494 5495 5497 5498 5499 5500 5502 5503 5504 5505 5507 5508 5510 5511 5513 5514 5516 5518 5519 5521 5522 5523 5525 5527 5528 5530 5532 5533 5534 5536 5537 5538 5540 5542 5544 5545 5547 5548 5549 5551 5552 5553 5554 5555 5556 5557 5558 5560
5424 5426 5428 5430 5432 5433 5435 5437 5438 5440 5442 5443 5445 5447 5448 5450 5452 5454 5456 5458 5460 5462 5464 5466 5468 5470 5471 5473 5474 5476 5477 5479 5481 5483 5484 5485 5486 5487 5489 5490 5492 5493 5495 5496 5497 5499 5500 5501 5503 5504 5506 5507 5508 5510 5512 5514 5515 5516 5518 5519 5520 5522 5524 5526 5528 5529 5530 5532 5533 5534 5536 5538 5540 5541 5543 5544 5545 5546 5547 5548 5549 5551 5552 5553 5554 5556
5420 5422 5424 5426 5428 5430 5432 5433 5435 5437 5438 5440 5441 5443 5445 5447 5448 5450 5453 5454 5456 5458 5460 5462 5464 5466 5468 5469 5470 5472 5473 5475 5477 5478 5479 5480 5481 5483 5484 5485 5487 5489 5491 5492 5493 5495 5496 5497 5498 5500 5501 5502 5504 5506 5508 5510 5511 5512 5513 5514 5516 5518 5520 5522 5524 5525 5526 5527 5528 5530 5532 5534 5536 5537 5539 5540 5541 5542 5543 5544 5545 5547 5548 5549 5550 5552
5416 5418 5420 5422 5424 5426 5428 5429 5431 5433 5434 5436 5438 5439 5441 5443 5445 5447 5449 5451 5453 5454 5456 5458 5460 5462 5464 5465 5467 5468 5469 5471 5473 5474 5475 5476 5477 5478 5479 5481 5483 5484 5486 5487 5488 5490 5492 5493 5494 5495 5496 5498 5500 5502 5503 5505 5507 5508 5509 5510 5512 5514 5516 5518 5519 5521 5522 5523 5524 5526 5528 5530 5532 5533 5535 5536 5537 5538 5539 5540 5542 5543 5544 5545 5547 5548
5412 5414 5416 5418 5420 5422 5424 5425 5427 5429 5431 5432 5434 5436 5438 5439 5441 5443 5445 5447 5449 5451 5452 5454 5456 5458 5460 5461 5463 5464 5466 5467 5468 5469 5471 5472 5473 5474 5475 5477 5478 5480 5481 5483 5484 5486 5487 5488 5489 5491 5492 5494 5496 5498 5499 5501 5503 5504 5505 5507 5509 5510 5512 5514 5515 5517 5518 5519 5521 5523 5524 5526 5528 5529 5531 5532 5533 5534 5535 5536 5538 5539 5540 5542 5543 5545
5408 5410 5412 5414 5416 5418 5420 5421 5423 5425 5427 5429 5431 5433 5434 5436 5438 5439 5441 5443 5445 5447 5448 5450 5452 5454 5456 5457 5459 5460 5461 5463 5464 5465 5466 5468 5468 5469 5471 5472 5473 5475 5477 5478 5480 5481 5483 5484 5485 5487 5488 5490 5492 5493 5495 5497 5498 5500 5502 5504 5505 5507 5508 5510 5511 5512 5514 5515 5517 5519 5521 5523 5524 5525 5527 5528 5529 5530 5532 5533 5534 5536 5537 5539 5540 5542
5404 5406 5408 5410 5412 5414 5416 5418 5419 5421 5423 5425 5427 5428 5430 5432 5434 5436 5438 5439 5441 5443 5444 5446 5448 5449 5451 5453 5454 5456 5457 5458 5459 5461 5462 5463 5464 5466 5467 5468 5469 5471 5473 5474 5475 5477 5478 5480 5481 5483 5485 5486 5488 5489 5491 5493 5494 5497 5498 5500 5501 5503 5504 5506 5507 5508 5510 5512 5513 5515 5517 5519 5520 5522 5523 5524 5526 5527 5528 5530 5531 5533 5534 5536 5537 5539
5401 5403 5405 5407 5408 5410 5412 5414 5416 5418 5419 5421 5423 5425 5427 5428 5430 5432 5434 5436 5437 5439 5441 5442 5444 5445 5447 5448 5450 5451 5453 5454 5455 5457 5458 5459 5460 5462 5463 5464 5465 5467 5468 5470 5471 5473 5474 5476 5478 5479 5481 5483 5484 5485 5487 5488 5491 5493 5494 5496 5498 5499 5501 5502 5503 5504 5506 5508 5510 5512 5513 5515 5516 5518 5519 5521 5522 5523 5525 5527 5528 5530 5531 5533 5534 5536
5398 5399 5401 5403 5405 5406 5408 5410 5412 5414 5416 5418 5419 5421 5423 5425 5427 5428 5430 5432 5434 5435 5437 5438 5440 5442 5443 5445 5446 5447 5448 5450 5451 5453 5454 5455 5457 5458 5459 5460 5461 5463 5464 5465 5467 5469 5470 5472 5474 5476 5477 5479 5480 5481 5483 5485 5487 5489 5490 5492 5494 5496 5497 5498 5499 5501 5503 5504 5506 5508 5510 5511 5513 5514 5516 5517 5519 5520 5522 5523 5525 5527 5529 5530 5532 5533
5394 5396 5398 5399 5401 5403 5405 5407 5408 5410 5412 5414 5416 5418 5420 5422 5423 5425 5427 5428 5430 5432 5433 5434 5436 5438 5439 5441 5442 5443 5445 5446 5447 5449 5450 5451 5453 5454 5455 5456 5458 5459 5460 5461 5463 5465 5467 5468 5470 5472 5473 5475 5476 5477 5479 5481 5483 5485 5487 5488 5490 5492 5493 5494 5496 5498 5499 5501 5503 5505 5506 5508 5510 5511 5513 5514 5516 5518 5519 5521 5523 5524 5526 5527 5529 5530
5390 5392 5394 5396 5398 5399 5401 5403 5405 5407 5409 5411 5413 5414 5416 5418 5419 5421 5423 5425 5426 5428 5430 5431 5433 5434 5435 5436 5438 5440 5441 5442 5443 5445 5446 5448 5449 5450 5451 5453 5454 5455 5456 5458 5459 5461 5463 5464 5466 5468 5469 5471 5472 5473 5475 5477 5479 5481 5483 5485 5487 5488 5489 5491 5493 5495 5496 5498 5500 5502 5503 5505 5507 5508 5510 5511 5513 5515 5516 5518 5520 5521 5523 5524 5526 5528
5387 5388 5390 5392 5394 5396 5397 5399 5401 5403 5405 5407 5409 5411 5412 5414 5416 5418 5419 5421 5423 5424 5426 5428 5429 5430 5431 5433 5434 5436 5437 5438 5440 5441 5442 5443 5445 5446 5448 5448 5450 5451 5453 5454 5455 5457 5459 5460 5462 5464 5466 5467 5468 5470 5472 5474 5476 5478 5480 5482 5483 5485 5487 5488 5490 5492 5493 5495 5497 5499 5500 5502 5504 5505 5507 5509 5510 5512 5514 5515 5517 5519 5520 5522 5523 5524
5383 5385 5387 5388 5390 5392 5394 5396 5398 5400 5402 5403 5405 5407 5409 5410 5412 5414 5416 5418 5419 5421 5423 5424 5425 5426 5427 5429 5430 5432 5433 5434 5436 5438 5439 5440 5441 5443 5444 5445 5446 5448 5449 5450 5452 5453 5455 5457 5458 5460 5462 5463 5465 5467 5469 5471 5473 5475 5477 5478 5480 5482 5484 5486 5487 5489 5491 5492 5494 5496 5498 5499 5501 5503 5504 5506 5508 5510 5511 5513 5514 5516 5517 5519 5520 5522
5379 5382 5383 5385 5387 5389 5391 5392 5394 5396 5398 5400 5402 5403 5405 5407 5409 5411 5412 5414 5416 5418 5419 5420 5422 5423 5424 5425 5427 5428 5429 5431 5433 5434 5435 5437 5438 5439 5440 5441 5443 5444 5445 5447 5448 5450 5451 5453 5455 5457 5458 5460 5462 5464 5466 5468 5470 5472 5473 5475 5477 5479 5481 5483 5484 5486 5488 5489 5491 5493 5495 5496 5498 5500 5502 5504 5506 5507 5508 5510 5511 5513 5514 5516 5518 5519
5376 5378 5380 5382 5383 5385 5387 5389 5391 5393 5394 5397 5398 5400 5402 5403 5405 5407 5409 5411 5413 5414 5416 5417 5418 5419 5420 5422 5423 5425 5426 5428 5429 5430 5432 5433 5434 5435 5437 5438 5439 5441 5442 5444 5445 5447 5448 5450 5452 5453 5455 5457 5459 5461 5463 5465 5467 5469 5470 5472 5474 5476 5478 5480 5482 5483 5485 5487 5488 5490 5492 5494 5496 5498 5500 5502 5503 5504 5506 5507 5508 5510 5512 5513 5515 5516
5373 5374 5376 5378 5380 5382 5383 5386 5388 5389 5391 5393 5395 5397 5398 5400 5402 5403 5405 5407 5409 5411 5412 5413 5414 5416 5417 5418 5420 5421 5423 5424 5425 5427 5428 5430 5431 5432 5433 5435 5436 5438 5439 5441 5442 5444 5446 5447 5449 5451 5453 5454 5456 5458 5460 5463 5464 5466 5468 5469 5472 5473 5476 5477 5479 5480 5482 5484 5485 5487 5489 5491 5493 5495 5497 5499 5500 5502 5503 5505 5506 5507 5509 5510 5512 5513
5369 5371 5373 5375 5377 5378 5380 5382 5384 5386 5388 5390 5391 5393 5395 5397 5398 5400 5402 5403 5405 5407 5408 5410 5411 5413 5413 5415 5416 5418 5419 5420 5422 5423 5425 5426 5428 5429 5430 5432 5433 5435 5437 5438 5439 5441 5443 5444 5446 5448 5450 5452 5453 5455 5457 5459 5462 5463 5465 5467 5469 5471 5473 5474 5476 5478 5479 5481 5483 5485 5487 5489 5491 5493 5494 5496 5497 5498 5500 5501 5503 5504 5506 5508 5509 5511